QPF
0.00 0.00 0.00 0.01 0.01 0.00 0.00 0.01 0.00 0.00 0.00 0.00 0.00 0.00 0.00 0.00 0.00 0.00 0.00 0.00 0.00 0.00 0.00 0.00 0.00 0.00 0.00 0.00 0.00 0.00 0.01 0.02 0.03 0.05 0.07 0.08 0.07 0.05 0.04 0.02 0.02 0.02 0.02 0.02
0.01 0.00 0.00 0.00 0.00 0.00 0.00 0.00 0.01 0.00 0.00 0.00 0.00 0.00 0.00 0.00 0.00 0.00 0.00 0.00 0.00 0.00 0.00 0.00 0.00 0.00 0.00 0.00 0.00 0.00 0.00 0.01 0.02 0.03 0.04 0.06 0.08 0.07 0.06 0.05 0.04 0.03 0.02 0.02
0.01 0.00 0.00 0.00 0.00 0.00 0.00 0.00 0.01 0.01 0.00 0.00 0.00 0.00 0.00 0.00 0.00 0.00 0.00 0.00 0.00 0.00 0.00 0.00 0.00 0.00 0.00 0.00 0.00 0.00 0.00 0.01 0.02 0.02 0.03 0.04 0.06 0.07 0.07 0.06 0.05 0.04 0.03 0.02
0.01 0.00 0.00 0.00 0.00 0.00 0.00 0.00 0.00 0.01 0.01 0.01 0.00 0.00 0.00 0.00 0.00 0.00 0.00 0.00 0.00 0.00 0.00 0.00 0.00 0.00 0.00 0.00 0.00 0.00 0.01 0.01 0.01 0.02 0.02 0.03 0.04 0.04 0.05 0.05 0.05 0.05 0.04 0.04
0.01 0.00 0.00 0.00 0.00 0.00 0.00 0.00 0.00 0.00 0.01 0.01 0.01 0.00 0.00 0.00 0.00 0.00 0.00 0.00 0.00 0.00 0.00 0.00 0.00 0.00 0.00 0.00 0.00 0.00 0.01 0.01 0.01 0.02 0.02 0.02 0.03 0.03 0.04 0.05 0.05 0.05 0.05 0.05
0.01 0.00 0.00 0.00 0.00 0.00 0.00 0.01 0.01 0.01 0.02 0.02 0.01 0.00 0.00 0.00 0.01 0.00 0.00 0.00 0.00 0.00 0.00 0.00 0.00 0.00 0.00 0.01 0.01 0.01 0.01 0.01 0.01 0.02 0.02 0.02 0.02 0.02 0.03 0.03 0.04 0.05 0.05 0.05
0.01 0.00 0.00 0.00 0.00 0.00 0.00 0.01 0.02 0.03 0.03 0.02 0.00 0.00 0.01 0.01 0.01 0.01 0.00 0.00 0.00 0.00 0.00 0.00 0.00 0.00 0.01 0.01 0.01 0.01 0.01 0.01 0.01 0.02 0.02 0.02 0.02 0.02 0.02 0.02 0.03 0.03 0.04 0.04
0.01 0.01 0.00 0.00 0.00 0.01 0.01 0.01 0.02 0.02 0.01 0.01 0.00 0.01 0.01 0.01 0.01 0.01 0.01 0.00 0.00 0.01 0.01 0.00 0.00 0.01 0.01 0.01 0.01 0.01 0.01 0.01 0.01 0.01 0.02 0.02 0.02 0.02 0.02 0.02 0.02 0.02 0.02 0.03
0.01 0.01 0.00 0.00 0.00 0.01 0.01 0.01 0.01 0.01 0.01 0.01 0.01 0.02 0.01 0.00 0.00 0.00 0.00 0.00 0.00 0.01 0.01 0.01 0.01 0.01 0.01 0.01 0.01 0.01 0.02 0.02 0.01 0.01 0.01 0.01 0.01 0.01 0.01 0.02 0.02 0.02 0.01 0.01
0.01 0.01 0.00 0.00 0.00 0.00 0.01 0.01 0.01 0.02 0.02 0.01 0.01 0.01 0.01 0.00 0.00 0.00 0.00 0.00 0.00 0.00 0.01 0.01 0.01 0.01 0.01 0.01 0.01 0.01 0.01 0.01 0.01 0.01 0.01 0.01 0.01 0.01 0.01 0.01 0.02 0.02 0.02 0.02
0.01 0.01 0.01 0.00 0.01 0.01 0.01 0.01 0.02 0.02 0.02 0.01 0.01 0.01 0.01 0.01 0.01 0.01 0.01 0.01 0.01 0.01 0.01 0.01 0.01 0.01 0.01 0.01 0.01 0.01 0.01 0.01 0.01 0.01 0.01 0.01 0.01 0.01 0.01 0.01 0.01 0.01 0.02 0.02
0.01 0.01 0.01 0.00 0.00 0.01 0.01 0.02 0.02 0.03 0.02 0.01 0.01 0.01 0.00 0.00 0.01 0.00 0.01 0.01 0.01 0.00 0.01 0.01 0.01 0.01 0.01 0.01 0.01 0.01 0.01 0.01 0.01 0.01 0.01 0.01 0.01 0.01 0.01 0.01 0.01 0.01 0.01 0.02
0.02 0.03 0.02 0.01 0.01 0.00 0.01 0.01 0.01 0.02 0.03 0.02 0.02 0.01 0.00 0.00 0.00 0.00 0.00 0.01 0.01 0.01 0.00 0.01 0.01 0.01 0.01 0.01 0.01 0.00 0.00 0.00 0.00 0.01 0.00 0.00 0.00 0.01 0.01 0.01 0.01 0.01 0.01 0.01
0.02 0.03 0.01 0.01 0.01 0.00 0.01 0.00 0.01 0.02 0.03 0.02 0.01 0.01 0.00 0.00 0.00 0.00 0.00 0.01 0.01 0.01 0.00 0.00 0.01 0.01 0.01 0.01 0.01 0.00 0.00 0.00 0.00 0.00 0.00 0.00 0.00 0.00 0.01 0.01 0.01 0.02 0.02 0.02
0.03 0.03 0.01 0.00 0.00 0.00 0.00 0.00 0.00 0.01 0.01 0.01 0.01 0.00 0.00 0.00 0.00 0.00 0.00 0.00 0.00 0.00 0.00 0.00 0.01 0.01 0.00 0.00 0.00 0.00 0.00 0.00 0.00 0.00 0.00 0.00 0.00 0.00 0.00 0.01 0.01 0.03 0.04 0.03
0.03 0.03 0.02 0.01 0.00 0.01 0.01 0.00 0.00 0.00 0.00 0.01 0.00 0.00 0.00 0.00 0.00 0.00 0.00 0.00 0.00 0.00 0.00 0.00 0.01 0.01 0.00 0.00 0.00 0.00 0.00 0.00 0.00 0.00 0.00 0.00 0.01 0.01 0.00 0.00 0.01 0.02 0.02 0.02
0.02 0.03 0.03 0.02 0.00 0.01 0.01 0.00 0.00 0.00 0.00 0.00 0.01 0.01 0.00 0.00 0.00 0.00 0.00 0.00 0.00 0.00 0.00 0.00 0.00 0.01 0.01 0.00 0.00 0.00 0.00 0.00 0.00 0.00 0.00 0.00 0.01 0.00 0.00 0.00 0.01 0.01 0.01 0.01
0.02 0.02 0.04 0.04 0.02 0.02 0.01 0.00 0.00 0.00 0.01 0.00 0.00 0.00 0.00 0.00 0.00 0.00 0.00 0.00 0.00 0.00 0.00 0.00 0.00 0.01 0.01 0.01 0.00 0.00 0.00 0.00 0.00 0.00 0.00 0.00 0.00 0.00 0.00 0.00 0.00 0.01 0.01 0.01
0.01 0.03 0.06 0.06 0.04 0.02 0.00 0.00 0.00 0.00 0.01 0.01 0.01 0.01 0.01 0.01 0.01 0.01 0.00 0.00 0.00 0.00 0.00 0.00 0.01 0.01 0.01 0.01 0.01 0.01 0.01 0.01 0.01 0.01 0.01 0.00 0.00 0.00 0.00 0.00 0.00 0.01 0.01 0.01
0.01 0.03 0.06 0.07 0.06 0.03 0.01 0.00 0.00 0.01 0.02 0.01 0.01 0.01 0.01 0.01 0.01 0.01 0.01 0.01 0.01 0.01 0.01 0.01 0.01 0.02 0.02 0.02 0.02 0.02 0.01 0.01 0.01 0.01 0.01 0.01 0.01 0.01 0.01 0.01 0.01 0.01 0.01 0.01
0.01 0.03 0.05 0.05 0.05 0.02 0.01 0.00 0.00 0.01 0.02 0.01 0.01 0.01 0.01 0.01 0.02 0.02 0.02 0.02 0.02 0.02 0.02 0.02 0.02 0.03 0.03 0.02 0.02 0.02 0.01 0.01 0.01 0.01 0.01 0.01 0.01 0.01 0.01 0.01 0.01 0.01 0.01 0.01
0.01 0.02 0.02 0.03 0.04 0.02 0.01 0.00 0.00 0.01 0.01 0.01 0.01 0.01 0.01 0.01 0.01 0.01 0.02 0.02 0.03 0.03 0.03 0.03 0.03 0.03 0.03 0.03 0.02 0.02 0.02 0.01 0.01 0.01 0.01 0.01 0.01 0.01 0.02 0.02 0.02 0.01 0.01 0.01
0.01 0.01 0.02 0.02 0.02 0.01 0.01 0.01 0.01 0.01 0.01 0.01 0.01 0.01 0.01 0.01 0.01 0.01 0.01 0.02 0.02 0.02 0.02 0.02 0.02 0.02 0.03 0.03 0.02 0.02 0.02 0.01 0.01 0.00 0.00 0.01 0.01 0.01 0.01 0.01 0.01 0.01 0.01 0.01
0.02 0.02 0.02 0.03 0.02 0.02 0.01 0.01 0.01 0.01 0.01 0.01 0.00 0.00 0.01 0.01 0.01 0.01 0.01 0.01 0.01 0.02 0.02 0.02 0.02 0.02 0.02 0.02 0.02 0.02 0.01 0.01 0.00 0.00 0.00 0.00 0.01 0.01 0.01 0.01 0.01 0.01 0.01 0.01
0.01 0.02 0.02 0.02 0.02 0.02 0.01 0.01 0.01 0.01 0.00 0.00 0.00 0.00 0.01 0.01 0.01 0.01 0.01 0.01 0.01 0.01 0.02 0.02 0.01 0.01 0.01 0.01 0.01 0.01 0.01 0.01 0.00 0.00 0.00 0.00 0.00 0.00 0.00 0.01 0.01 0.01 0.01 0.02
0.00 0.01 0.01 0.01 0.02 0.02 0.02 0.01 0.01 0.01 0.01 0.01 0.01 0.01 0.01 0.01 0.01 0.01 0.01 0.01 0.01 0.01 0.01 0.01 0.01 0.01 0.01 0.01 0.01 0.01 0.01 0.01 0.00 0.00 0.00 0.00 0.00 0.00 0.00 0.00 0.00 0.01 0.01 0.01
MSLP
1020.89 1020.90 1020.90 1020.91 1020.92 1020.94 1020.95 1020.94 1020.89 1020.77 1020.58 1020.30 1019.96 1019.56 1019.13 1018.70 1018.27 1017.88 1017.51 1017.18 1016.89 1016.64 1016.43 1016.27 1016.18 1016.17 1016.26 1016.45 1016.75 1017.15 1017.62 1018.15 1018.71 1019.28 1019.82 1020.34 1020.81 1021.24 1021.64 1022.00 1022.35 1022.70 1023.05 1023.43
1021.21 1021.18 1021.16 1021.14 1021.16 1021.20 1021.25 1021.30 1021.31 1021.24 1021.08 1020.82 1020.47 1020.02 1019.53 1019.03 1018.54 1018.10 1017.72 1017.40 1017.15 1016.94 1016.77 1016.65 1016.55 1016.51 1016.52 1016.60 1016.78 1017.04 1017.40 1017.84 1018.33 1018.87 1019.41 1019.94 1020.43 1020.88 1021.28 1021.64 1021.98 1022.31 1022.65 1023.01
1021.50 1021.45 1021.41 1021.39 1021.42 1021.50 1021.61 1021.72 1021.80 1021.80 1021.68 1021.43 1021.05 1020.57 1020.02 1019.45 1018.91 1018.44 1018.05 1017.76 1017.56 1017.42 1017.31 1017.23 1017.15 1017.08 1017.03 1017.02 1017.07 1017.20 1017.42 1017.74 1018.15 1018.61 1019.11 1019.61 1020.09 1020.53 1020.92 1021.27 1021.58 1021.88 1022.19 1022.54
1021.80 1021.73 1021.68 1021.67 1021.73 1021.86 1022.03 1022.22 1022.37 1022.42 1022.34 1022.10 1021.71 1021.18 1020.57 1019.95 1019.36 1018.86 1018.48 1018.22 1018.07 1018.00 1017.97 1017.94 1017.90 1017.82 1017.73 1017.64 1017.57 1017.57 1017.66 1017.85 1018.14 1018.51 1018.93 1019.37 1019.80 1020.20 1020.55 1020.86 1021.13 1021.39 1021.67 1021.97
1022.12 1022.05 1022.00 1022.01 1022.10 1022.28 1022.52 1022.78 1022.99 1023.09 1023.04 1022.80 1022.38 1021.81 1021.15 1020.47 1019.84 1019.31 1018.94 1018.71 1018.62 1018.62 1018.66 1018.70 1018.70 1018.64 1018.52 1018.37 1018.21 1018.10 1018.06 1018.12 1018.28 1018.53 1018.85 1019.20 1019.56 1019.88 1020.17 1020.42 1020.63 1020.84 1021.06 1021.31
1022.52 1022.43 1022.39 1022.42 1022.55 1022.78 1023.07 1023.38 1023.63 1023.76 1023.72 1023.47 1023.02 1022.40 1021.69 1020.95 1020.28 1019.74 1019.36 1019.16 1019.12 1019.19 1019.30 1019.41 1019.46 1019.43 1019.31 1019.12 1018.91 1018.71 1018.56 1018.50 1018.54 1018.66 1018.86 1019.11 1019.36 1019.60 1019.80 1019.97 1020.12 1020.26 1020.41 1020.60
1023.00 1022.90 1022.87 1022.92 1023.08 1023.34 1023.67 1024.00 1024.27 1024.40 1024.33 1024.05 1023.55 1022.88 1022.12 1021.33 1020.63 1020.07 1019.70 1019.52 1019.52 1019.64 1019.83 1020.00 1020.10 1020.11 1020.01 1019.82 1019.58 1019.32 1019.10 1018.94 1018.87 1018.89 1018.97 1019.10 1019.25 1019.39 1019.50 1019.59 1019.65 1019.71 1019.79 1019.91
1023.58 1023.48 1023.45 1023.52 1023.69 1023.97 1024.30 1024.62 1024.87 1024.95 1024.84 1024.49 1023.93 1023.20 1022.38 1021.56 1020.82 1020.25 1019.89 1019.73 1019.77 1019.94 1020.18 1020.41 1020.58 1020.64 1020.58 1020.41 1020.17 1019.90 1019.64 1019.42 1019.28 1019.20 1019.19 1019.22 1019.27 1019.31 1019.33 1019.33 1019.32 1019.29 1019.29 1019.33
1024.26 1024.17 1024.15 1024.22 1024.40 1024.66 1024.96 1025.24 1025.41 1025.42 1025.21 1024.78 1024.13 1023.34 1022.46 1021.60 1020.85 1020.27 1019.91 1019.78 1019.85 1020.06 1020.35 1020.64 1020.87 1020.99 1020.99 1020.88 1020.68 1020.43 1020.16 1019.93 1019.74 1019.61 1019.53 1019.48 1019.45 1019.41 1019.35 1019.27 1019.17 1019.07 1018.99 1018.93
1025.03 1024.95 1024.94 1025.02 1025.19 1025.41 1025.65 1025.84 1025.91 1025.80 1025.47 1024.92 1024.19 1023.31 1022.38 1021.49 1020.72 1020.15 1019.80 1019.69 1019.79 1020.04 1020.37 1020.71 1021.00 1021.19 1021.27 1021.23 1021.10 1020.90 1020.68 1020.47 1020.28 1020.13 1020.01 1019.92 1019.82 1019.72 1019.59 1019.44 1019.27 1019.09 1018.92 1018.77
1025.88 1025.82 1025.83 1025.92 1026.06 1026.24 1026.39 1026.46 1026.39 1026.14 1025.67 1024.99 1024.15 1023.19 1022.21 1021.29 1020.52 1019.95 1019.62 1019.53 1019.64 1019.92 1020.28 1020.67 1021.02 1021.28 1021.44 1021.50 1021.46 1021.35 1021.20 1021.05 1020.90 1020.76 1020.63 1020.51 1020.38 1020.23 1020.04 1019.83 1019.60 1019.34 1019.09 1018.84
1026.79 1026.76 1026.80 1026.89 1027.01 1027.12 1027.17 1027.12 1026.90 1026.48 1025.86 1025.06 1024.11 1023.08 1022.05 1021.12 1020.34 1019.78 1019.46 1019.38 1019.51 1019.80 1020.18 1020.60 1021.00 1021.33 1021.58 1021.73 1021.80 1021.80 1021.75 1021.67 1021.57 1021.46 1021.35 1021.22 1021.06 1020.88 1020.65 1020.39 1020.10 1019.78 1019.44 1019.10
1027.77 1027.79 1027.85 1027.93 1028.01 1028.05 1028.00 1027.81 1027.44 1026.88 1026.12 1025.20 1024.16 1023.08 1022.02 1021.07 1020.30 1019.75 1019.44 1019.36 1019.48 1019.76 1020.15 1020.59 1021.03 1021.42 1021.74 1021.99 1022.16 1022.27 1022.31 1022.32 1022.28 1022.21 1022.11 1021.98 1021.81 1021.59 1021.33 1021.03 1020.69 1020.31 1019.90 1019.47
1028.85 1028.89 1028.95 1029.02 1029.05 1029.01 1028.85 1028.54 1028.04 1027.35 1026.48 1025.47 1024.37 1023.26 1022.19 1021.25 1020.49 1019.94 1019.63 1019.53 1019.64 1019.90 1020.27 1020.71 1021.16 1021.59 1021.98 1022.31 1022.58 1022.78 1022.91 1022.99 1023.00 1022.96 1022.87 1022.73 1022.54 1022.29 1022.00 1021.66 1021.28 1020.85 1020.39 1019.90
1030.03 1030.06 1030.10 1030.12 1030.08 1029.95 1029.69 1029.26 1028.66 1027.87 1026.93 1025.88 1024.77 1023.65 1022.61 1021.69 1020.95 1020.42 1020.09 1019.98 1020.04 1020.27 1020.60 1021.02 1021.46 1021.92 1022.35 1022.74 1023.08 1023.35 1023.55 1023.67 1023.72 1023.69 1023.58 1023.42 1023.19 1022.90 1022.57 1022.20 1021.79 1021.34 1020.84 1020.32
1031.30 1031.28 1031.25 1031.18 1031.05 1030.81 1030.44 1029.92 1029.24 1028.40 1027.44 1026.40 1025.31 1024.25 1023.26 1022.40 1021.70 1021.18 1020.84 1020.70 1020.72 1020.89 1021.17 1021.55 1021.97 1022.42 1022.87 1023.30 1023.68 1023.99 1024.23 1024.37 1024.41 1024.37 1024.23 1024.01 1023.73 1023.40 1023.03 1022.63 1022.20 1021.73 1021.24 1020.70
1032.61 1032.50 1032.35 1032.16 1031.89 1031.53 1031.06 1030.45 1029.72 1028.88 1027.94 1026.95 1025.95 1024.98 1024.09 1023.31 1022.67 1022.18 1021.85 1021.68 1021.65 1021.76 1021.99 1022.31 1022.70 1023.12 1023.57 1024.01 1024.40 1024.73 1024.97 1025.10 1025.12 1025.02 1024.82 1024.54 1024.19 1023.80 1023.38 1022.95 1022.51 1022.05 1021.57 1021.06
1033.88 1033.62 1033.31 1032.95 1032.53 1032.03 1031.45 1030.79 1030.03 1029.21 1028.35 1027.47 1026.59 1025.76 1025.00 1024.34 1023.79 1023.35 1023.04 1022.86 1022.80 1022.86 1023.03 1023.29 1023.63 1024.03 1024.46 1024.88 1025.27 1025.58 1025.79 1025.88 1025.84 1025.68 1025.40 1025.04 1024.61 1024.15 1023.68 1023.22 1022.77 1022.33 1021.88 1021.41
1034.98 1034.55 1034.05 1033.50 1032.91 1032.27 1031.59 1030.88 1030.13 1029.37 1028.61 1027.87 1027.16 1026.50 1025.91 1025.39 1024.96 1024.60 1024.34 1024.17 1024.10 1024.12 1024.24 1024.46 1024.76 1025.12 1025.52 1025.91 1026.27 1026.55 1026.71 1026.75 1026.64 1026.39 1026.03 1025.57 1025.06 1024.53 1024.01 1023.52 1023.06 1022.63 1022.22 1021.79
1035.78 1035.17 1034.48 1033.75 1033.00 1032.23 1031.47 1030.73 1030.01 1029.34 1028.71 1028.13 1027.61 1027.15 1026.74 1026.39 1026.09 1025.85 1025.66 1025.53 1025.46 1025.48 1025.58 1025.76 1026.03 1026.35 1026.71 1027.07 1027.39 1027.62 1027.73 1027.70 1027.52 1027.19 1026.73 1026.19 1025.60 1025.00 1024.43 1023.90 1023.44 1023.01 1022.61 1022.22
1036.16 1035.39 1034.55 1033.67 1032.78 1031.93 1031.12 1030.38 1029.72 1029.14 1028.66 1028.26 1027.93 1027.67 1027.46 1027.29 1027.15 1027.03 1026.93 1026.87 1026.84 1026.87 1026.97 1027.14 1027.38 1027.67 1028.00 1028.31 1028.58 1028.76 1028.81 1028.72 1028.47 1028.07 1027.54 1026.93 1026.27 1025.61 1024.99 1024.43 1023.93 1023.50 1023.10 1022.71
1036.06 1035.18 1034.23 1033.25 1032.30 1031.40 1030.59 1029.88 1029.30 1028.85 1028.51 1028.28 1028.15 1028.08 1028.06 1028.07 1028.08 1028.10 1028.12 1028.14 1028.17 1028.24 1028.36 1028.52 1028.75 1029.01 1029.30 1029.57 1029.79 1029.92 1029.92 1029.76 1029.46 1029.00 1028.43 1027.76 1027.06 1026.36 1025.69 1025.09 1024.56 1024.10 1023.68 1023.27
1035.47 1034.54 1033.55 1032.55 1031.59 1030.72 1029.95 1029.33 1028.85 1028.52 1028.33 1028.27 1028.30 1028.41 1028.56 1028.73 1028.90 1029.05 1029.18 1029.30 1029.41 1029.53 1029.68 1029.85 1030.07 1030.30 1030.55 1030.77 1030.93 1031.01 1030.96 1030.77 1030.42 1029.94 1029.34 1028.66 1027.94 1027.21 1026.52 1025.88 1025.32 1024.81 1024.34 1023.89
1034.44 1033.53 1032.57 1031.62 1030.73 1029.94 1029.28 1028.76 1028.41 1028.22 1028.17 1028.25 1028.43 1028.68 1028.98 1029.29 1029.59 1029.87 1030.12 1030.33 1030.52 1030.70 1030.88 1031.06 1031.26 1031.47 1031.67 1031.84 1031.95 1031.97 1031.88 1031.65 1031.30 1030.81 1030.22 1029.55 1028.84 1028.12 1027.42 1026.76 1026.16 1025.60 1025.08 1024.57
1033.10 1032.25 1031.38 1030.54 1029.78 1029.12 1028.60 1028.24 1028.02 1027.96 1028.04 1028.24 1028.54 1028.90 1029.31 1029.74 1030.15 1030.54 1030.89 1031.19 1031.46 1031.70 1031.91 1032.10 1032.28 1032.45 1032.60 1032.70 1032.76 1032.73 1032.60 1032.36 1032.01 1031.55 1031.00 1030.37 1029.70 1029.01 1028.33 1027.67 1027.04 1026.44 1025.87 1025.29
1031.58 1030.82 1030.08 1029.39 1028.79 1028.30 1027.95 1027.74 1027.67 1027.73 1027.92 1028.22 1028.60 1029.05 1029.55 1030.06 1030.56 1031.04 1031.48 1031.87 1032.20 1032.49 1032.72 1032.92 1033.08 1033.20 1033.29 1033.33 1033.32 1033.24 1033.09 1032.85 1032.52 1032.11 1031.62 1031.06 1030.46 1029.84 1029.20 1028.56 1027.93 1027.31 1026.69 1026.07
Thickness
5541 5533 5532 5537 5541 5546 5545 5542 5541 5546 5550 5546 5545 5550 5559 5562 5559 5560 5561 5563 5566 5568 5570 5570 5571 5572 5572 5573 5574 5576 5577 5577 5577 5576 5576 5576 5576 5577 5578 5579 5579 5579 5578 5577
5525 5525 5535 5537 5537 5536 5534 5531 5532 5536 5539 5537 5535 5542 5551 5555 5555 5556 5556 5557 5558 5558 5558 5560 5561 5561 5562 5563 5565 5567 5568 5568 5568 5568 5568 5568 5568 5568 5569 5570 5570 5570 5570 5569
5520 5527 5532 5530 5527 5528 5527 5525 5525 5525 5527 5528 5527 5534 5542 5549 5548 5549 5549 5548 5548 5549 5549 5550 5550 5550 5552 5553 5554 5557 5558 5559 5560 5560 5559 5559 5559 5559 5559 5560 5561 5562 5562 5562
5511 5519 5522 5521 5520 5521 5519 5524 5522 5519 5514 5510 5518 5514 5535 5539 5538 5540 5539 5537 5537 5538 5539 5540 5540 5540 5541 5542 5544 5546 5548 5549 5550 5550 5551 5551 5551 5550 5551 5551 5553 5554 5554 5554
5505 5511 5511 5511 5513 5514 5513 5516 5515 5513 5507 5500 5504 5502 5522 5527 5530 5532 5530 5528 5526 5527 5527 5528 5529 5530 5531 5532 5533 5535 5537 5538 5539 5540 5541 5541 5541 5541 5541 5542 5543 5544 5545 5545
5498 5503 5504 5505 5506 5507 5506 5504 5500 5493 5488 5487 5499 5495 5509 5512 5521 5522 5521 5518 5516 5515 5516 5516 5517 5517 5518 5520 5521 5523 5525 5526 5527 5529 5530 5531 5531 5531 5531 5532 5533 5534 5535 5535
5486 5492 5494 5496 5494 5496 5495 5486 5473 5467 5464 5479 5494 5491 5500 5510 5510 5511 5510 5507 5505 5504 5503 5503 5503 5505 5506 5507 5509 5511 5513 5514 5515 5517 5518 5520 5520 5521 5522 5523 5524 5524 5524 5525
5471 5477 5480 5481 5485 5482 5481 5481 5469 5462 5462 5472 5483 5484 5496 5499 5497 5498 5498 5496 5494 5492 5491 5492 5492 5492 5493 5495 5496 5498 5500 5502 5504 5505 5506 5508 5509 5510 5511 5513 5514 5515 5515 5516
5459 5467 5473 5473 5476 5476 5471 5469 5473 5462 5451 5452 5468 5476 5483 5491 5489 5486 5486 5484 5482 5481 5481 5481 5480 5480 5481 5483 5484 5486 5488 5490 5491 5493 5494 5496 5497 5498 5500 5501 5503 5504 5505 5506
5455 5455 5461 5461 5465 5465 5465 5463 5455 5450 5442 5445 5467 5475 5480 5484 5480 5477 5474 5472 5470 5470 5469 5469 5468 5468 5469 5470 5471 5473 5475 5477 5479 5480 5482 5483 5484 5486 5487 5489 5491 5492 5493 5494
5447 5441 5443 5446 5446 5448 5448 5449 5449 5446 5443 5444 5449 5469 5476 5475 5474 5468 5465 5462 5459 5459 5457 5456 5455 5456 5456 5457 5458 5460 5461 5463 5465 5466 5467 5469 5471 5472 5474 5476 5478 5479 5481 5482
5436 5429 5423 5431 5436 5439 5438 5440 5438 5438 5432 5440 5450 5458 5467 5464 5462 5459 5455 5452 5449 5447 5445 5444 5443 5443 5443 5443 5444 5446 5447 5449 5451 5452 5453 5455 5457 5458 5460 5462 5464 5466 5467 5469
5426 5417 5411 5420 5424 5424 5424 5429 5430 5429 5427 5425 5432 5447 5451 5448 5448 5446 5443 5440 5437 5435 5433 5431 5430 5430 5430 5430 5431 5432 5433 5435 5436 5438 5439 5440 5442 5443 5445 5447 5449 5452 5454 5456
5421 5406 5407 5415 5420 5414 5412 5417 5418 5416 5415 5418 5430 5438 5439 5436 5435 5433 5431 5429 5426 5423 5422 5420 5418 5417 5418 5418 5418 5418 5419 5420 5422 5424 5425 5426 5428 5429 5431 5433 5435 5438 5440 5442
5404 5393 5391 5401 5406 5404 5406 5411 5410 5408 5413 5416 5427 5426 5430 5427 5425 5422 5419 5416 5415 5413 5411 5409 5407 5405 5405 5405 5404 5405 5405 5406 5408 5410 5411 5413 5415 5416 5417 5419 5421 5423 5426 5428
5387 5380 5378 5383 5394 5393 5396 5403 5404 5406 5407 5408 5410 5413 5414 5410 5408 5406 5405 5405 5403 5402 5400 5398 5396 5394 5393 5392 5392 5392 5392 5393 5394 5396 5397 5399 5401 5402 5403 5404 5406 5408 5411 5413
5372 5367 5365 5368 5374 5374 5377 5398 5399 5397 5392 5396 5401 5407 5399 5395 5396 5394 5393 5393 5393 5390 5387 5384 5382 5381 5379 5378 5379 5379 5379 5380 5381 5382 5383 5385 5386 5387 5388 5390 5392 5394 5396 5398
5363 5357 5348 5345 5349 5358 5395 5394 5393 5391 5389 5387 5391 5389 5388 5387 5383 5379 5377 5377 5376 5374 5371 5369 5367 5366 5365 5364 5365 5365 5366 5366 5367 5368 5369 5370 5371 5372 5374 5375 5377 5378 5381 5383
5360 5352 5336 5332 5336 5351 5377 5380 5375 5375 5378 5377 5376 5372 5369 5367 5365 5364 5363 5361 5359 5357 5355 5353 5352 5350 5349 5350 5351 5351 5351 5352 5352 5353 5354 5356 5357 5358 5359 5360 5362 5364 5365 5367
5345 5342 5330 5323 5331 5338 5377 5370 5367 5367 5367 5363 5359 5357 5354 5353 5356 5358 5349 5344 5342 5340 5339 5338 5336 5334 5334 5335 5336 5336 5336 5337 5338 5339 5340 5341 5342 5343 5344 5346 5347 5348 5350 5352
5324 5320 5319 5317 5319 5336 5354 5352 5354 5352 5363 5351 5348 5347 5342 5340 5343 5339 5332 5329 5326 5325 5323 5322 5320 5319 5319 5320 5321 5321 5322 5322 5323 5324 5325 5326 5327 5329 5330 5331 5332 5333 5335 5336
5323 5314 5308 5304 5309 5329 5340 5338 5341 5342 5336 5335 5333 5331 5328 5324 5322 5319 5316 5313 5311 5309 5308 5306 5305 5304 5304 5305 5306 5306 5307 5307 5308 5309 5310 5311 5312 5314 5316 5317 5318 5318 5319 5320
5320 5323 5319 5319 5328 5324 5318 5321 5319 5318 5318 5317 5315 5313 5311 5309 5306 5304 5301 5298 5296 5294 5292 5291 5290 5289 5288 5289 5290 5290 5291 5292 5292 5293 5295 5296 5297 5299 5301 5302 5303 5303 5304 5305
5307 5306 5306 5304 5311 5308 5304 5303 5302 5302 5303 5302 5301 5299 5297 5295 5293 5291 5288 5285 5282 5279 5277 5275 5274 5273 5273 5273 5273 5273 5275 5276 5277 5278 5280 5281 5282 5284 5285 5286 5288 5289 5289 5290
5300 5292 5292 5295 5297 5292 5294 5292 5290 5289 5288 5288 5287 5285 5283 5282 5280 5277 5274 5271 5267 5265 5262 5260 5259 5258 5257 5257 5258 5258 5260 5261 5262 5263 5265 5266 5267 5268 5269 5270 5272 5273 5275 5276
5285 5284 5288 5299 5297 5290 5292 5286 5280 5276 5276 5274 5273 5270 5268 5267 5265 5262 5259 5256 5252 5249 5248 5246 5245 5244 5243 5243 5243 5244 5245 5246 5246 5248 5249 5250 5251 5252 5253 5255 5256 5259 5261 5263